This is the latest recevied weather packets stored in our database for station/object WR9A-13. If no packets are shown the sender has not sent any weather packets the latest 1 day(s).
| Time | Temp. | Humidity | Pressure | Rain* | Wind** | Luminosity | Snow |
|---|---|---|---|---|---|---|---|
| 1778100025 | 15° C | 48% | 1014.5 hPa | 0 mm | - | - | - |
| 1778097617 | 15° C | 47% | 1014.9 hPa | 0 mm | - | - | - |
| 1778097021 | 14.44° C | 47% | 1015 hPa | 0 mm | - | - | - |
| 1778094018 | 13.89° C | 49% | 1015.1 hPa | 0 mm | - | - | - |
| 1778093722 | 13.89° C | 52% | 1015.1 hPa | 0 mm | - | - | - |
| 1778091016 | 13.89° C | 57% | 1015 hPa | 0 mm | - | - | - |
| 1778090414 | 13.89° C | 57% | 1014.9 hPa | 0 mm | - | - | - |
| 1778089819 | 13.33° C | 58% | 1015.1 hPa | 0.25 mm | - | - | - |
| 1778089536 | 13.33° C | 58% | 1015.2 hPa | 0.25 mm | - | - | - |
| 1778089223 | 13.33° C | 56% | 1015.1 hPa | 0.25 mm | - | - | - |
| 1778086530 | 13.33° C | 58% | 1014.9 hPa | 0.25 mm | - | - | - |
| 1778085916 | 13.33° C | 60% | 1014.9 hPa | 0 mm | - | - | - |
| 1778085633 | 13.33° C | 58% | 1014.8 hPa | 0 mm | - | - | - |
| 1778085038 | 12.78° C | 59% | 1014.6 hPa | 0 mm | - | - | - |
| 1778081716 | 12.78° C | 63% | 1014.6 hPa | 0 mm | - | - | - |
| 1778081432 | 12.78° C | 63% | 1014.5 hPa | 0 mm | - | - | - |
| 1778081118 | 12.78° C | 62% | 1014.7 hPa | 0 mm | - | - | - |
| 1778080814 | 12.78° C | 64% | 1014.7 hPa | 0 mm | - | - | - |
| 1778077830 | 11.67° C | 73% | 1014.5 hPa | 0 mm | - | - | - |
| 1778076620 | 11.67° C | 78% | 1014.6 hPa | 0 mm | - | - | - |
| 1778076316 | 11.67° C | 78% | 1014.3 hPa | 0 mm | - | - | - |
| 1778075733 | 11.67° C | 80% | 1014.3 hPa | 0 mm | - | - | - |
| 1778075429 | 11.11° C | 80% | 1014.3 hPa | 0 mm | - | - | - |
| 1778075116 | 11.11° C | 81% | 1014.2 hPa | 0 mm | - | - | - |
| 1778073326 | 10.56° C | 84% | 1013.6 hPa | 0 mm | - | - | - |
* Rain latest hour (hover to see other rain measurements)
** Current wind speed in m/s (hover to see current wind gust speed)